Weather History for KGAI - August, 2013

Change the Weather History Date:

Thursday, August 29, 2013

  Actual Average (KCGS) Record (KCGS)
Temperature  
Mean Temperature 76 °F -  
Max Temperature 82 °F 86 °F 99 °F (1948)
Min Temperature 69 °F 65 °F 43 °F (1982)
Cooling Degree Days 10    
Growing Degree Days 26 (Base 50)    
Moisture  
Dew Point 68 °F    
Average Humidity 83    
Maximum Humidity 100    
Minimum Humidity 58    
Precipitation  
Precipitation 0.00 in - - ()
Sea Level Pressure  
Sea Level Pressure 29.99 in    
Wind  
Wind Speed 2 mph (NE)    
Max Wind Speed 7 mph    
Max Gust Speed -    
Visibility 7 miles    
Events      
Averages and records for this station are not official NWS values.
T = Trace of Precipitation, MM = Missing Value Source: NWS Daily Summary

Daily Weather History Graph

Daily Weather History Graph

Search for Another Location

Airport or City:

Trip Planner

Search our weather history database for the weather conditions in past years. The results will help you decide how hot, cold, wet, or windy it might be!

Date:

Astronomy

Aug. 29, 2013 Rise Set
Actual Time 6:34 AM EDT 7:43 PM EDT
Civil Twilight 6:07 AM EDT 8:11 PM EDT
Nautical Twilight 5:34 AM EDT 8:43 PM EDT
Astronomical Twilight 4:59 AM EDT 9:18 PM EDT
Moon 12:26 AM EDT (8/29) 3:09 PM EDT (8/29)
Length of Visible Light 14h 03m
Length of Day
13h 08m
Last Quarter, 38% of the Moon is Illuminated
Aug 29
Last Quarter
Sep 5
New
Sep 12
First Quarter
Sep 19
Full
Sep 26
Last Quarter

Hourly Weather History & Observations

Time (EDT) Temp. Heat Index Dew Point Humidity Pressure Visibility Wind Dir Wind Speed Gust Speed Precip Events Conditions
12:15 AM 69.8 °F - 68.0 °F 94% 29.88 in 0.2 mi Calm Calm - N/A   Overcast
12:35 AM 69.8 °F - 66.2 °F 88% 29.89 in 0.2 mi Calm Calm - N/A   Overcast
12:55 AM 69.8 °F - 68.0 °F 94% 29.89 in 2.0 mi Calm Calm - N/A   Overcast
1:15 AM 69.8 °F - 68.0 °F 94% 29.90 in 4.0 mi Calm Calm - N/A   Overcast
1:35 AM 69.8 °F - 68.0 °F 94% 29.90 in 4.0 mi Calm Calm - N/A   Overcast
1:55 AM 69.8 °F - 68.0 °F 94% 29.90 in 4.0 mi Calm Calm - N/A   Overcast
2:15 AM 69.8 °F - 68.0 °F 94% 29.90 in 4.0 mi Calm Calm - N/A   Overcast
2:35 AM 69.8 °F - 68.0 °F 94% 29.90 in 4.0 mi Calm Calm - N/A   Overcast
2:55 AM 69.8 °F - 68.0 °F 94% 29.90 in 5.0 mi NNE 3.5 mph - N/A   Overcast
3:15 AM 69.8 °F - 69.8 °F 100% 29.90 in 5.0 mi NE 5.8 mph - N/A   Overcast
3:35 AM 69.8 °F - 69.8 °F 100% 29.90 in 5.0 mi NE 3.5 mph - N/A   Overcast
3:55 AM 69.8 °F - 69.8 °F 100% 29.91 in 5.0 mi Calm Calm - N/A   Overcast
4:15 AM 69.8 °F - 69.8 °F 100% 29.91 in 5.0 mi North 3.5 mph - N/A   Overcast
4:35 AM 69.8 °F - 69.8 °F 100% 29.92 in 5.0 mi NNE 3.5 mph - N/A   Overcast
4:55 AM 69.8 °F - 69.8 °F 100% 29.92 in 5.0 mi Calm Calm - N/A   Mostly Cloudy
5:15 AM 69.8 °F - 68.0 °F 94% 29.93 in 4.0 mi Calm Calm - N/A   Mostly Cloudy
5:35 AM 69.8 °F - 68.0 °F 94% 29.93 in 4.0 mi Calm Calm - N/A   Mostly Cloudy
5:55 AM 69.8 °F - 68.0 °F 94% 29.94 in 4.0 mi North 3.5 mph - N/A   Mostly Cloudy
6:15 AM 69.8 °F - 68.0 °F 94% 29.95 in 4.0 mi NNE 3.5 mph - N/A   Mostly Cloudy
6:35 AM 69.8 °F - 68.0 °F 94% 29.95 in 3.0 mi NNE 3.5 mph - N/A   Mostly Cloudy
6:55 AM 69.8 °F - 68.0 °F 94% 29.97 in 2.5 mi NNE 4.6 mph - N/A   Overcast
7:15 AM 69.8 °F - 68.0 °F 94% 29.97 in 2.5 mi NNE 4.6 mph - N/A   Overcast
7:35 AM 69.8 °F - 68.0 °F 94% 29.98 in 3.0 mi NNE 5.8 mph - N/A   Overcast
7:55 AM 69.8 °F - 68.0 °F 94% 29.99 in 2.5 mi North 4.6 mph - N/A   Overcast
8:15 AM 69.8 °F - 68.0 °F 94% 29.99 in 2.5 mi Calm Calm - N/A   Overcast
8:35 AM 69.8 °F - 68.0 °F 94% 30.00 in 2.5 mi Calm Calm - N/A   Overcast
8:55 AM 71.6 °F - 69.8 °F 94% 30.00 in 2.5 mi NNE 4.6 mph - N/A   Overcast
9:15 AM 71.6 °F - 69.8 °F 94% 30.01 in 3.0 mi NE 4.6 mph - N/A   Mostly Cloudy
9:35 AM 71.6 °F - 69.8 °F 94% 30.01 in 3.0 mi NNE 5.8 mph - N/A   Mostly Cloudy
9:55 AM 71.6 °F - 69.8 °F 94% 30.01 in 4.0 mi NE 4.6 mph - N/A   Overcast
10:15 AM 73.4 °F - 69.8 °F 88% 30.02 in 5.0 mi North 4.6 mph - N/A   Overcast
10:35 AM 73.4 °F - 69.8 °F 88% 30.02 in 5.0 mi ENE 4.6 mph - N/A   Overcast
10:55 AM 73.4 °F - 69.8 °F 88% 30.03 in 5.0 mi NE 3.5 mph - N/A   Overcast
11:15 AM 73.4 °F - 69.8 °F 88% 30.03 in 6.0 mi NE 6.9 mph - N/A   Overcast
11:35 AM 75.2 °F - 69.8 °F 83% 30.03 in 8.0 mi Calm Calm - N/A   Overcast
11:55 AM 77.0 °F - 69.8 °F 78% 30.03 in 8.0 mi North 4.6 mph - N/A   Overcast
12:15 PM 77.0 °F - 69.8 °F 78% 30.03 in 10.0 mi NE 3.5 mph - N/A   Mostly Cloudy
12:35 PM 78.8 °F - 68.0 °F 69% 30.03 in 10.0 mi NNE 4.6 mph - N/A   Mostly Cloudy
12:55 PM 78.8 °F - 69.8 °F 74% 30.03 in 10.0 mi ENE 4.6 mph - N/A   Mostly Cloudy
1:15 PM 78.8 °F - 69.8 °F 74% 30.03 in 10.0 mi ENE 3.5 mph - N/A   Mostly Cloudy
1:35 PM 78.8 °F - 68.0 °F 69% 30.03 in 10.0 mi NNE 3.5 mph - N/A   Mostly Cloudy
1:55 PM 78.8 °F - 66.2 °F 65% 30.03 in 10.0 mi ENE 3.5 mph - N/A   Mostly Cloudy
2:15 PM 78.8 °F - 68.0 °F 69% 30.03 in 10.0 mi East 3.5 mph - N/A   Mostly Cloudy
2:35 PM 80.6 °F 83.2 °F 68.0 °F 65% 30.03 in 10.0 mi ENE 4.6 mph - N/A   Scattered Clouds
2:55 PM 80.6 °F 83.2 °F 68.0 °F 65% 30.02 in 10.0 mi NE 5.8 mph - N/A   Scattered Clouds
3:15 PM 82.4 °F 84.6 °F 66.2 °F 58% 30.02 in 10.0 mi Calm Calm - N/A   Partly Cloudy
3:35 PM 82.4 °F 84.6 °F 66.2 °F 58% 30.02 in 10.0 mi Calm Calm - N/A   Partly Cloudy
3:55 PM 82.4 °F 84.6 °F 66.2 °F 58% 30.02 in 10.0 mi ENE 4.6 mph - N/A   Clear
4:15 PM 82.4 °F 84.6 °F 66.2 °F 58% 30.02 in 10.0 mi East 3.5 mph - N/A   Clear
4:35 PM 82.4 °F 84.6 °F 66.2 °F 58% 30.02 in 10.0 mi Calm Calm - N/A   Partly Cloudy
4:55 PM 82.4 °F 84.6 °F 66.2 °F 58% 30.02 in 10.0 mi Calm Calm - N/A   Partly Cloudy
5:15 PM 80.6 °F 82.7 °F 66.2 °F 61% 30.02 in 10.0 mi Calm Calm - N/A   Partly Cloudy
5:35 PM 82.4 °F 84.6 °F 66.2 °F 58% 30.02 in 10.0 mi NE 3.5 mph - N/A   Partly Cloudy
5:55 PM 80.6 °F 82.7 °F 66.2 °F 61% 30.02 in 10.0 mi NE 3.5 mph - N/A   Clear
6:15 PM 80.6 °F 82.7 °F 66.2 °F 61% 30.02 in 10.0 mi Calm Calm - N/A   Clear
6:35 PM 80.6 °F 83.9 °F 69.8 °F 70% 30.02 in 10.0 mi Calm Calm - N/A   Partly Cloudy
6:55 PM 80.6 °F 83.2 °F 68.0 °F 65% 30.03 in 10.0 mi ENE 3.5 mph - N/A   Partly Cloudy
7:15 PM 78.8 °F - 68.0 °F 69% 30.03 in 10.0 mi Calm Calm - N/A   Clear
7:35 PM 77.0 °F - 68.0 °F 74% 30.03 in 10.0 mi Calm Calm - N/A   Clear
7:55 PM 75.2 °F - 68.0 °F 78% 30.03 in 10.0 mi Calm Calm - N/A   Clear
8:15 PM 75.2 °F - 68.0 °F 78% 30.04 in 10.0 mi Calm Calm - N/A   Clear
8:35 PM 73.4 °F - 68.0 °F 83% 30.04 in 10.0 mi Calm Calm - N/A   Clear
8:55 PM 73.4 °F - 68.0 °F 83% 30.05 in 10.0 mi Calm Calm - N/A   Clear
9:15 PM 73.4 °F - 68.0 °F 83% 30.05 in 10.0 mi East 3.5 mph - N/A   Clear
9:35 PM 71.6 °F - 68.0 °F 88% 30.06 in 10.0 mi Calm Calm - N/A   Clear
9:55 PM 71.6 °F - 68.0 °F 88% 30.06 in 10.0 mi ESE 5.8 mph - N/A   Clear
10:15 PM 71.6 °F - 68.0 °F 88% 30.06 in 10.0 mi ESE 5.8 mph - N/A   Clear
10:35 PM 71.6 °F - 66.2 °F 83% 30.06 in 10.0 mi SE 4.6 mph - N/A   Clear
10:55 PM 71.6 °F - 68.0 °F 88% 30.05 in 10.0 mi SE 4.6 mph - N/A   Clear
11:15 PM 69.8 °F - 66.2 °F 88% 30.06 in 9.0 mi SE 3.5 mph - N/A   Clear
11:35 PM 69.8 °F - 66.2 °F 88% 30.06 in 8.0 mi SE 3.5 mph - N/A   Clear
11:55 PM 69.8 °F - 66.2 °F 88% 30.07 in 7.0 mi SE 3.5 mph - N/A   Clear